User: anonymous   Login
Location: Unspecified
(0.0000°N, 0.0000°E)
Time: 15:31:38
(UTC+02:00)
Language:

Cosmos 1295 Rocket - Orbit

View from above orbital plane
View from above orbital plane
View from above satellite
View from above satellite

Ground track
Ground track

The orbit data is extracted from the following two-line orbital elements,

1 12682U 81077B   15186.17875659 -.00000067  00000-0 -81045-4 0  9998
2 12682 082.9156 189.3995 0033948 181.3492 227.3233 13.78498751704636
Epoch (UTC): 05 July 2015 04:17:24
Eccentricity: 0.0033948
inclination: 82.9156°
perigee height: 944 km
apogee height: 994 km
right ascension of ascending node: 189.3995°
argument of perigee: 181.3492°
revolutions per day: 13.78498751
mean anomaly at epoch: 227.3233°
orbit number at epoch: 70463

The dashed part of the orbit path shows where the satellite is in the earth's shadow,  

DLR